Location: Dompnac
(44.5644°N, 4.1026°E)
Time: 17:29:15
(UTC+00:00)

Cosmos 1634 Rocket - Pass Details

Date: 19 January 2021
Orbit: 961 x 991 km, 82.9° (Epoch: 05 March)

Event Time Altitude Azimuth Distance (km) Brightness Sun altitude
Rises 17:43:41 0° 348° (NNW) 3,675 7.0 -12.2°
Reaches altitude 10° 17:46:13 10° 344° (NNW) 2,728 6.4 -12.6°
Maximum altitude 17:52:18 56° 268° (W) 1,151 4.8 -13.6°
Drops below altitude 10° 17:58:23 10° 192° (SSW) 2,730 6.7 -14.7°
Sets 18:00:57 0° 188° (S) 3,678 7.3 -15.1°
